Time,TemperatureF,DewpointF,PressureIn,WindDirection,WindDirectionDegrees,WindSpeedMPH,WindSpeedGustMPH,Humidity,HourlyPrecipIn,Conditions,Clouds,dailyrainin,SoftwareType,DateUTC
2013-01-19 00:08:00,34.6,0.0,30.17,NNW,332,7.0,22.0,0,0.00,CLR,CLR,0.00,WeatherDisplay:10.36,2013-01-19 07:08:00,
2013-01-19 00:23:00,33.9,0.0,30.18,NW,326,7.0,29.0,0,0.00,CLR,CLR,0.00,WeatherDisplay:10.36,2013-01-19 07:23:00,
2013-01-19 00:38:00,34.3,0.0,30.17,NNW,330,9.0,34.0,0,0.00,CLR,CLR,0.00,WeatherDisplay:10.36,2013-01-19 07:38:00,
2013-01-19 00:53:00,34.2,0.0,30.17,NW,324,7.0,28.0,0,0.00,CLR,CLR,0.00,WeatherDisplay:10.36,2013-01-19 07:53:00,
2013-01-19 01:08:00,33.9,0.0,30.19,NW,320,12.0,26.0,0,0.00,CLR,CLR,0.00,WeatherDisplay:10.36,2013-01-19 08:08:00,
2013-01-19 01:23:00,34.0,0.0,30.19,NW,324,7.0,21.0,0,0.00,CLR,CLR,0.00,WeatherDisplay:10.36,2013-01-19 08:23:00,
2013-01-19 01:38:00,33.7,0.0,30.19,NW,318,10.0,22.0,0,0.00,CLR,CLR,0.00,WeatherDisplay:10.36,2013-01-19 08:38:00,
2013-01-19 01:53:00,33.8,0.0,30.19,NW,318,10.0,19.0,0,0.00,CLR,CLR,0.00,WeatherDisplay:10.36,2013-01-19 08:53:00,
2013-01-19 02:08:00,33.7,0.0,30.19,NW,315,9.0,22.0,0,0.00,CLR,CLR,0.00,WeatherDisplay:10.36,2013-01-19 09:08:00,
2013-01-19 02:23:00,33.6,0.0,30.18,NW,308,8.0,21.0,0,0.00,CLR,CLR,0.00,WeatherDisplay:10.36,2013-01-19 09:23:00,
2013-01-19 02:38:00,33.2,0.0,30.18,NW,320,6.0,21.0,0,0.00,CLR,CLR,0.00,WeatherDisplay:10.36,2013-01-19 09:38:00,
2013-01-19 02:53:00,33.7,0.0,30.17,NW,311,5.0,22.0,0,0.00,CLR,CLR,0.00,WeatherDisplay:10.36,2013-01-19 09:53:00,
2013-01-19 03:08:00,34.0,0.0,30.17,NW,324,2.0,30.0,0,0.00,CLR,CLR,0.00,WeatherDisplay:10.36,2013-01-19 10:08:00,
2013-01-19 03:23:00,34.2,0.0,30.14,NW,317,8.0,23.0,0,0.00,CLR,CLR,0.00,WeatherDisplay:10.36,2013-01-19 10:23:00,
2013-01-19 03:38:00,34.5,0.0,30.16,NNW,331,8.0,22.0,0,0.00,CLR,CLR,0.00,WeatherDisplay:10.36,2013-01-19 10:38:00,
2013-01-19 03:53:00,34.3,0.0,30.17,NW,318,5.0,26.0,0,0.00,CLR,CLR,0.00,WeatherDisplay:10.36,2013-01-19 10:53:00,
2013-01-19 04:08:00,34.3,0.0,30.18,NNW,338,0.0,14.0,0,0.00,CLR,CLR,0.00,WeatherDisplay:10.36,2013-01-19 11:08:00,
2013-01-19 05:53:00,33.4,0.0,30.24,NW,322,9.0,17.0,0,0.00,CLR,CLR,0.00,WeatherDisplay:10.36,2013-01-19 12:53:00,
2013-01-19 06:08:00,33.4,0.0,30.24,NNW,329,2.0,19.0,0,0.00,CLR,CLR,0.00,WeatherDisplay:10.36,2013-01-19 13:08:00,
2013-01-19 06:23:00,33.2,0.0,30.25,NW,316,0.0,23.0,0,0.00,CLR,CLR,0.00,WeatherDisplay:10.36,2013-01-19 13:23:00,
2013-01-19 06:38:00,32.8,0.0,30.26,NNW,330,5.0,24.0,0,0.00,CLR,CLR,0.00,WeatherDisplay:10.36,2013-01-19 13:38:00,
2013-01-19 06:53:00,32.1,0.0,30.27,NNW,332,5.0,17.0,0,0.00,CLR,CLR,0.00,WeatherDisplay:10.36,2013-01-19 13:53:00,
2013-01-19 07:08:00,32.3,0.0,30.27,NW,325,7.0,23.0,0,0.00,CLR,CLR,0.00,WeatherDisplay:10.36,2013-01-19 14:08:00,
2013-01-19 07:23:00,31.9,0.0,30.28,NW,325,8.0,28.0,0,0.00,CLR,CLR,0.00,WeatherDisplay:10.36,2013-01-19 14:23:00,
2013-01-19 07:38:00,32.2,0.0,30.28,NNW,327,8.0,22.0,0,0.00,CLR,CLR,0.00,WeatherDisplay:10.36,2013-01-19 14:38:00,
2013-01-19 07:53:00,32.9,0.0,30.27,NW,325,6.0,24.0,0,0.00,CLR,CLR,0.00,WeatherDisplay:10.36,2013-01-19 14:53:00,
2013-01-19 08:08:00,33.5,0.0,30.28,NNW,327,6.0,20.0,0,0.00,CLR,CLR,0.00,WeatherDisplay:10.36,2013-01-19 15:08:00,
2013-01-19 08:23:00,35.7,0.0,30.28,NNW,336,3.0,16.0,0,0.00,CLR,CLR,0.00,WeatherDisplay:10.36,2013-01-19 15:23:00,
2013-01-19 08:38:00,36.5,0.0,30.29,NW,324,7.0,16.0,0,0.00,CLR,CLR,0.00,WeatherDisplay:10.36,2013-01-19 15:38:00,
2013-01-19 08:53:00,37.7,0.0,30.29,NNW,329,6.0,20.0,0,0.00,CLR,CLR,0.00,WeatherDisplay:10.36,2013-01-19 15:53:00,
2013-01-19 09:08:00,38.4,0.0,30.30,NNW,327,6.0,20.0,0,0.00,CLR,CLR,0.00,WeatherDisplay:10.36,2013-01-19 16:08:00,
2013-01-19 09:23:00,39.5,0.0,30.30,NW,325,6.0,22.0,0,0.00,CLR,CLR,0.00,WeatherDisplay:10.36,2013-01-19 16:23:00,
2013-01-19 09:38:00,41.2,0.0,30.30,NW,324,7.0,25.0,0,0.00,CLR,CLR,0.00,WeatherDisplay:10.36,2013-01-19 16:38:00,
2013-01-19 09:53:00,42.0,0.0,30.30,NW,316,10.0,25.0,0,0.00,CLR,CLR,0.00,WeatherDisplay:10.36,2013-01-19 16:53:00,
2013-01-19 10:08:00,42.9,0.0,30.31,NW,321,8.0,22.0,0,0.00,CLR,CLR,0.00,WeatherDisplay:10.36,2013-01-19 17:08:00,
2013-01-19 10:23:00,43.6,0.0,30.31,NW,326,7.0,18.0,0,0.00,CLR,CLR,0.00,WeatherDisplay:10.36,2013-01-19 17:23:00,
2013-01-19 10:38:00,44.1,0.0,30.31,NW,323,7.0,23.0,0,0.00,CLR,CLR,0.00,WeatherDisplay:10.36,2013-01-19 17:38:00,
2013-01-19 10:53:00,44.1,0.0,30.30,NW,319,9.0,23.0,0,0.00,CLR,CLR,0.00,WeatherDisplay:10.36,2013-01-19 17:53:00,
2013-01-19 11:08:00,44.5,0.0,30.30,NW,318,8.0,26.0,0,0.00,CLR,CLR,0.00,WeatherDisplay:10.36,2013-01-19 18:08:00,
2013-01-19 11:23:00,45.7,0.0,30.30,NW,322,10.0,25.0,0,0.00,CLR,CLR,0.00,WeatherDisplay:10.36,2013-01-19 18:23:00,
2013-01-19 11:53:00,47.2,0.0,30.29,NNW,328,7.0,21.0,0,0.00,CLR,CLR,0.00,WeatherDisplay:10.36,2013-01-19 18:53:00,
2013-01-19 12:23:00,47.6,0.0,30.29,NW,325,8.0,19.0,0,0.00,CLR,CLR,0.00,WeatherDisplay:10.36,2013-01-19 19:23:00,
2013-01-19 12:38:00,47.7,0.0,30.28,NW,325,2.0,21.0,0,0.00,CLR,CLR,0.00,WeatherDisplay:10.36,2013-01-19 19:38:00,
2013-01-19 12:53:00,48.4,0.0,30.28,NW,326,7.0,15.0,0,0.00,CLR,CLR,0.00,WeatherDisplay:10.36,2013-01-19 19:53:00,
2013-01-19 13:23:00,48.4,0.0,30.27,NW,323,2.0,15.0,0,0.00,CLR,CLR,0.00,WeatherDisplay:10.36,2013-01-19 20:23:00,
2013-01-19 13:38:00,47.8,0.0,30.27,NNW,344,1.0,15.0,0,0.00,CLR,CLR,0.00,WeatherDisplay:10.36,2013-01-19 20:38:00,
2013-01-19 13:53:00,48.6,0.0,30.27,NNW,339,3.0,15.0,0,0.00,CLR,CLR,0.00,WeatherDisplay:10.36,2013-01-19 20:53:00,
2013-01-19 14:08:00,49.4,0.0,30.27,NW,322,8.0,14.0,0,0.00,CLR,CLR,0.00,WeatherDisplay:10.36,2013-01-19 21:08:00,
2013-01-19 14:23:00,48.6,0.0,30.26,NNW,335,5.0,11.0,0,0.00,CLR,CLR,0.00,WeatherDisplay:10.36,2013-01-19 21:23:00,
2013-01-19 14:38:00,48.6,0.0,30.26,NNW,327,1.0,16.0,0,0.00,CLR,CLR,0.00,WeatherDisplay:10.36,2013-01-19 21:38:00,
2013-01-19 15:38:00,44.8,0.0,30.27,NW,323,9.0,21.0,0,0.00,CLR,CLR,0.00,WeatherDisplay:10.36,2013-01-19 22:38:00,
2013-01-19 15:53:00,44.0,0.0,30.28,NNW,327,8.0,30.0,0,0.00,CLR,CLR,0.00,WeatherDisplay:10.36,2013-01-19 22:53:00,
2013-01-19 16:08:00,43.1,0.0,30.28,NW,325,5.0,11.0,0,0.00,CLR,CLR,0.00,WeatherDisplay:10.36,2013-01-19 23:08:00,
2013-01-19 16:23:00,41.8,0.0,30.29,NNW,337,5.0,15.0,0,0.00,CLR,CLR,0.00,WeatherDisplay:10.36,2013-01-19 23:23:00,
2013-01-19 16:38:00,41.2,0.0,30.28,NW,324,7.0,14.0,0,0.00,CLR,CLR,0.00,WeatherDisplay:10.36,2013-01-19 23:38:00,
2013-01-19 16:53:00,40.7,0.0,30.28,NNW,327,7.0,22.0,0,0.00,CLR,CLR,0.00,WeatherDisplay:10.36,2013-01-19 23:53:00,
2013-01-19 17:08:00,40.2,0.0,30.29,NW,323,7.0,21.0,0,0.00,CLR,CLR,0.00,WeatherDisplay:10.36,2013-01-20 00:08:00,
2013-01-19 17:23:00,39.9,0.0,30.29,NW,324,7.0,18.0,0,0.00,CLR,CLR,0.00,WeatherDisplay:10.36,2013-01-20 00:23:00,
2013-01-19 17:38:00,39.4,0.0,30.30,NW,320,9.0,25.0,0,0.00,CLR,CLR,0.00,WeatherDisplay:10.36,2013-01-20 00:38:00,
2013-01-19 18:08:00,38.4,0.0,30.29,NW,318,10.0,28.0,0,0.00,CLR,CLR,0.00,WeatherDisplay:10.36,2013-01-20 01:08:00,
2013-01-19 18:23:00,38.1,0.0,30.28,NW,319,9.0,20.0,0,0.00,CLR,CLR,0.00,WeatherDisplay:10.36,2013-01-20 01:23:00,
2013-01-19 18:38:00,38.2,0.0,30.28,NW,326,3.0,27.0,0,0.00,CLR,CLR,0.00,WeatherDisplay:10.36,2013-01-20 01:38:00,
2013-01-19 19:08:00,37.7,0.0,30.29,NW,323,7.0,25.0,0,0.00,CLR,CLR,0.00,WeatherDisplay:10.36,2013-01-20 02:08:00,
2013-01-19 19:53:00,37.3,0.0,30.28,NNW,330,10.0,21.0,0,0.00,CLR,CLR,0.00,WeatherDisplay:10.36,2013-01-20 02:53:00,
2013-01-19 20:08:00,37.8,0.0,30.28,NW,322,6.0,20.0,0,0.00,CLR,CLR,0.00,WeatherDisplay:10.36,2013-01-20 03:08:00,
2013-01-19 20:23:00,38.4,0.0,30.29,NNW,335,7.0,20.0,0,0.00,CLR,CLR,0.00,WeatherDisplay:10.36,2013-01-20 03:23:00,
2013-01-19 20:38:00,38.4,0.0,30.28,NNW,341,2.0,17.0,0,0.00,CLR,CLR,0.00,WeatherDisplay:10.36,2013-01-20 03:38:00,
2013-01-19 20:53:00,38.0,0.0,30.27,NNW,337,1.0,17.0,0,0.00,CLR,CLR,0.00,WeatherDisplay:10.36,2013-01-20 03:53:00,
2013-01-19 21:08:00,38.0,0.0,30.27,NW,320,5.0,14.0,0,0.00,CLR,CLR,0.00,WeatherDisplay:10.36,2013-01-20 04:08:00,
2013-01-19 21:38:00,38.0,0.0,30.26,NW,325,8.0,27.0,0,0.00,CLR,CLR,0.00,WeatherDisplay:10.36,2013-01-20 04:38:00,
2013-01-19 21:53:00,37.8,0.0,30.27,NW,326,8.0,28.0,0,0.00,CLR,CLR,0.00,WeatherDisplay:10.36,2013-01-20 04:53:00,
2013-01-19 22:08:00,38.0,0.0,30.26,NNW,328,7.0,25.0,0,0.00,CLR,CLR,0.00,WeatherDisplay:10.36,2013-01-20 05:08:00,
2013-01-19 22:23:00,37.6,0.0,30.28,NW,324,6.0,15.0,0,0.00,CLR,CLR,0.00,WeatherDisplay:10.36,2013-01-20 05:23:00,
2013-01-19 22:38:00,37.8,0.0,30.28,NNW,330,7.0,21.0,0,0.00,CLR,CLR,0.00,WeatherDisplay:10.36,2013-01-20 05:38:00,
2013-01-19 22:53:00,38.1,0.0,30.26,NNW,346,2.0,15.0,0,0.00,CLR,CLR,0.00,WeatherDisplay:10.36,2013-01-20 05:53:00,
2013-01-19 23:08:00,37.2,0.0,30.26,NNE,18,0.0,10.0,0,0.00,CLR,CLR,0.00,WeatherDisplay:10.36,2013-01-20 06:08:00,
2013-01-19 23:23:00,37.2,0.0,30.25,NE,38,1.0,10.0,0,0.00,CLR,CLR,0.00,WeatherDisplay:10.36,2013-01-20 06:23:00,
2013-01-19 23:38:00,37.1,0.0,30.25,NE,36,8.0,18.0,0,0.00,CLR,CLR,0.00,WeatherDisplay:10.36,2013-01-20 06:38:00,
2013-01-19 23:53:00,36.6,0.0,30.25,NNE,14,6.0,18.0,0,0.00,CLR,CLR,0.00,WeatherDisplay:10.36,2013-01-20 06:53:00,